| time (UTC) | temp C | wind direction | speed KPH | gust KPH | rain 1hr cm | rain 24hr cm | rain mn cm | humidity % | barometer mb |
| 20260507155904 | 27 | 0 | 8.0 | 20.9 | 0.00 | 0.00 | 0.00 | 79 | 1003.2 |
| 20260507155353 | 27 | 23 | 3.2 | 20.9 | 0.00 | 0.00 | 0.00 | 80 | 1003.2 |
| 20260507154843 | 27 | 338 | 6.4 | 20.9 | 0.00 | 0.00 | 0.00 | 79 | 1003.7 |
| 20260507154333 | 27 | 0 | 0.0 | 20.9 | 0.00 | 0.00 | 0.00 | 79 | 1003.8 |
| 20260507153823 | 27 | 0 | 9.7 | 24.1 | 0.00 | 0.00 | 0.00 | 78 | 1003.9 |
| 20260507153313 | 27 | 23 | 9.7 | 24.1 | 0.00 | 0.00 | 0.00 | 77 | 1004.1 |
| 20260507152802 | 27 | 338 | 8.0 | 20.9 | 0.00 | 0.00 | 0.00 | 77 | 1003.9 |
| 20260507152253 | 27 | 23 | 14.5 | 20.9 | 0.00 | 0.00 | 0.00 | 77 | 1004.2 |
| 20260507151232 | 27 | 23 | 1.6 | 17.7 | 0.00 | 0.00 | 0.00 | 79 | 1004.3 |
| 20260507150722 | 27 | 0 | 0.0 | 14.5 | 0.00 | 0.00 | 0.00 | 79 | 1004.3 |
| 20260507145703 | 27 | 0 | 11.3 | 20.9 | 0.00 | 0.00 | 0.00 | 79 | 1004.3 |
| 20260507145159 | 27 | 45 | 0.0 | 17.7 | 0.00 | 0.00 | 0.00 | 80 | 1004.5 |
| 20260507144642 | 26 | 0 | 0.0 | 17.7 | 0.00 | 0.00 | 0.00 | 79 | 1004.0 |
| 20260507144132 | 26 | 68 | 0.0 | 12.9 | 0.00 | 0.00 | 0.00 | 80 | 1004.2 |
| 20260507143111 | 26 | 0 | 6.4 | 17.7 | 0.00 | 0.00 | 0.00 | 79 | 1004.4 |
| 20260507142051 | 26 | 23 | 12.9 | 20.9 | 0.00 | 0.00 | 0.00 | 79 | 1004.5 |
| 20260507141032 | 27 | 23 | 0.0 | 17.7 | 0.00 | 0.00 | 0.00 | 77 | 1004.4 |
| 20260507140521 | 27 | 45 | 8.0 | 17.7 | 0.00 | 0.00 | 0.00 | 78 | 1004.5 |
| 20260507140023 | 27 | 45 | 6.4 | 17.7 | 0.00 | 0.00 | 0.00 | 77 | 1004.6 |
| 20260507135511 | 27 | 68 | 9.7 | 20.9 | 0.00 | 0.00 | 0.00 | 77 | 1004.6 |
| 20260507134951 | 27 | 23 | 8.0 | 20.9 | 0.00 | 0.00 | 0.00 | 77 | 1004.7 |
| 20260507134440 | 26 | 68 | 9.7 | 17.7 | 0.00 | 0.00 | 0.00 | 77 | 1004.8 |
| 20260507133930 | 27 | 45 | 9.7 | 17.7 | 0.00 | 0.00 | 0.00 | 77 | 1005.0 |
| 20260507133420 | 27 | 23 | 4.8 | 20.9 | 0.00 | 0.00 | 0.00 | 77 | 1004.8 |
| 20260507132910 | 27 | 45 | 6.4 | 20.9 | 0.00 | 0.00 | 0.00 | 76 | 1005.0 |
| 20260507132401 | 27 | 0 | 3.2 | 17.7 | 0.00 | 0.00 | 0.00 | 76 | 1005.0 |
| 20260507131850 | 27 | 68 | 11.3 | 20.9 | 0.00 | 0.00 | 0.00 | 76 | 1005.0 |
| 20260507131340 | 27 | 45 | 8.0 | 20.9 | 0.00 | 0.00 | 0.00 | 76 | 1004.8 |
| 20260507130831 | 27 | 23 | 0.0 | 20.9 | 0.00 | 0.00 | 0.00 | 76 | 1004.9 |
| 20260507130319 | 27 | 23 | 4.8 | 20.9 | 0.00 | 0.00 | 0.00 | 76 | 1005.0 |
| 20260507125810 | 27 | 68 | 6.4 | 20.9 | 0.00 | 0.00 | 0.00 | 76 | 1005.1 |
| 20260507125259 | 27 | 68 | 4.8 | 20.9 | 0.00 | 0.00 | 0.00 | 76 | 1005.0 |
| 20260507124749 | 27 | 68 | 9.7 | 20.9 | 0.00 | 0.00 | 0.00 | 76 | 1005.2 |
| 20260507124240 | 27 | 68 | 8.0 | 20.9 | 0.00 | 0.00 | 0.00 | 75 | 1005.2 |
| 20260507123729 | 27 | 68 | 8.0 | 20.9 | 0.00 | 0.00 | 0.00 | 75 | 1005.3 |
| 20260507122709 | 27 | 68 | 4.8 | 11.3 | 0.00 | 0.00 | 0.00 | 74 | 1005.4 |
| 20260507122200 | 26 | 45 | 1.6 | 17.7 | 0.00 | 0.00 | 0.00 | 76 | 1005.4 |
| 20260507121649 | 26 | 90 | 6.4 | 17.7 | 0.00 | 0.00 | 0.00 | 77 | 1005.6 |
| 20260507121138 | 26 | 23 | 6.4 | 14.5 | 0.00 | 0.00 | 0.00 | 77 | 1005.6 |
| 20260507120629 | 26 | 68 | 3.2 | 17.7 | 0.00 | 0.00 | 0.00 | 77 | 1005.7 |
| 20260507120125 | 26 | 23 | 0.0 | 17.7 | 0.00 | 0.00 | 0.00 | 77 | 1005.6 |
| 20260507115609 | 26 | 68 | 1.6 | 9.7 | 0.00 | 0.00 | 0.00 | 77 | 1005.5 |
| 20260507114549 | 26 | 23 | 0.0 | 17.7 | 0.00 | 0.00 | 0.00 | 77 | 1005.3 |
| 20260507114038 | 26 | 45 | 0.0 | 17.7 | 0.00 | 0.00 | 0.00 | 77 | 1005.6 |
| 20260507113528 | 26 | 68 | 1.6 | 17.7 | 0.00 | 0.00 | 0.00 | 77 | 1005.1 |
| 20260507113024 | 26 | 90 | 1.6 | 17.7 | 0.00 | 0.00 | 0.00 | 77 | 1005.4 |
| 20260507112507 | 26 | 45 | 6.4 | 20.9 | 0.00 | 0.00 | 0.00 | 76 | 1005.3 |
| 20260507111957 | 26 | 90 | 1.6 | 20.9 | 0.00 | 0.00 | 0.00 | 77 | 1005.3 |
| 20260507111447 | 26 | 68 | 0.0 | 17.7 | 0.00 | 0.00 | 0.00 | 77 | 1005.0 |
| 20260507110937 | 26 | 23 | 8.0 | 17.7 | 0.00 | 0.00 | 0.00 | 76 | 1005.3 |
| 20260507110427 | 26 | 45 | 6.4 | 12.9 | 0.00 | 0.00 | 0.00 | 76 | 1005.3 |
| 20260507105917 | 26 | 45 | 1.6 | 11.3 | 0.00 | 0.00 | 0.00 | 77 | 1005.5 |
| 20260507105406 | 26 | 23 | 1.6 | 17.7 | 0.00 | 0.00 | 0.00 | 77 | 1005.5 |
| 20260507104857 | 26 | 23 | 0.0 | 17.7 | 0.00 | 0.00 | 0.00 | 77 | 1005.7 |
| 20260507104346 | 26 | 338 | 0.0 | 12.9 | 0.00 | 0.00 | 0.00 | 77 | 1005.6 |
| 20260507103836 | 26 | 45 | 6.4 | 11.3 | 0.00 | 0.00 | 0.00 | 77 | 1005.1 |
| 20260507103326 | 26 | 0 | 0.0 | 14.5 | 0.00 | 0.00 | 0.00 | 77 | 1005.4 |
| 20260507102816 | 26 | 68 | 3.2 | 14.5 | 0.00 | 0.00 | 0.00 | 77 | 1005.1 |
| 20260507102307 | 26 | 0 | 0.0 | 14.5 | 0.00 | 0.00 | 0.00 | 77 | 1005.1 |
| 20260507101246 | 26 | 45 | 8.0 | 14.5 | 0.00 | 0.00 | 0.00 | 77 | 1004.9 |
| 20260507100735 | 26 | 45 | 1.6 | 20.9 | 0.00 | 0.00 | 0.00 | 77 | 1004.9 |
| 20260507100226 | 26 | 68 | 1.6 | 20.9 | 0.00 | 0.00 | 0.00 | 77 | 1004.6 |
| 20260507095716 | 26 | 45 | 8.0 | 20.9 | 0.00 | 0.00 | 0.00 | 77 | 1004.8 |
| 20260507095205 | 26 | 68 | 1.6 | 17.7 | 0.00 | 0.00 | 0.00 | 77 | 1004.8 |
| 20260507094655 | 26 | 45 | 0.0 | 22.5 | 0.00 | 0.00 | 0.00 | 77 | 1004.7 |
| 20260507094146 | 26 | 23 | 3.2 | 22.5 | 0.00 | 0.00 | 0.00 | 76 | 1004.4 |
| 20260507093635 | 26 | 23 | 6.4 | 17.7 | 0.00 | 0.00 | 0.00 | 77 | 1004.3 |
| 20260507093125 | 26 | 45 | 4.8 | 17.7 | 0.00 | 0.00 | 0.00 | 77 | 1004.4 |
| 20260507092615 | 26 | 0 | 6.4 | 17.7 | 0.00 | 0.00 | 0.00 | 77 | 1004.3 |
| 20260507092104 | 26 | 23 | 3.2 | 17.7 | 0.00 | 0.00 | 0.00 | 77 | 1003.9 |
| 20260507091044 | 26 | 45 | 0.0 | 20.9 | 0.00 | 0.00 | 0.00 | 77 | 1003.8 |
| 20260507090535 | 26 | 23 | 3.2 | 20.9 | 0.00 | 0.00 | 0.00 | 77 | 1003.8 |
| 20260507090028 | 26 | 45 | 6.4 | 20.9 | 0.00 | 0.00 | 0.00 | 76 | 1003.8 |
| 20260507085514 | 26 | 90 | 6.4 | 27.4 | 0.00 | 0.00 | 0.00 | 76 | 1003.8 |
| 20260507085005 | 26 | 113 | 0.0 | 27.4 | 0.00 | 0.00 | 0.00 | 76 | 1003.7 |
| 20260507084453 | 26 | 0 | 6.4 | 22.5 | 0.00 | 0.00 | 0.00 | 76 | 1003.9 |
| 20260507083943 | 26 | 23 | 17.7 | 22.5 | 0.00 | 0.00 | 0.00 | 76 | 1003.8 |
| 20260507083434 | 26 | 23 | 12.9 | 25.7 | 0.00 | 0.00 | 0.00 | 77 | 1003.9 |
| 20260507082923 | 26 | 23 | 3.2 | 25.7 | 0.00 | 0.00 | 0.00 | 77 | 1003.9 |
| 20260507082413 | 26 | 23 | 6.4 | 12.9 | 0.00 | 0.00 | 0.00 | 78 | 1004.3 |
| 20260507081353 | 26 | 45 | 0.0 | 17.7 | 0.00 | 0.00 | 0.00 | 79 | 1004.3 |
| 20260507080843 | 26 | 45 | 0.0 | 14.5 | 0.00 | 0.00 | 0.00 | 79 | 1004.4 |
| 20260507080333 | 26 | 90 | 4.8 | 17.7 | 0.00 | 0.00 | 0.00 | 79 | 1004.3 |
| 20260507075823 | 26 | 68 | 6.4 | 17.7 | 0.00 | 0.00 | 0.00 | 80 | 1004.4 |
| 20260507074803 | 26 | 23 | 1.6 | 6.4 | 0.00 | 0.00 | 0.00 | 80 | 1004.4 |
| 20260507074253 | 26 | 45 | 0.0 | 11.3 | 0.00 | 0.00 | 0.00 | 80 | 1004.6 |
| 20260507073742 | 26 | 68 | 3.2 | 11.3 | 0.00 | 0.00 | 0.00 | 80 | 1004.6 |
| 20260507073232 | 26 | 68 | 0.0 | 6.4 | 0.00 | 0.00 | 0.00 | 81 | 1004.8 |
| 20260507072722 | 26 | 0 | 0.0 | 11.3 | 0.00 | 0.00 | 0.00 | 80 | 1004.7 |
| 20260507072212 | 26 | 23 | 3.2 | 11.3 | 0.00 | 0.00 | 0.00 | 80 | 1004.7 |
| 20260507071702 | 26 | 45 | 0.0 | 9.7 | 0.00 | 0.00 | 0.00 | 80 | 1004.7 |
| 20260507071152 | 26 | 68 | 0.0 | 11.3 | 0.00 | 0.00 | 0.00 | 81 | 1004.9 |
| 20260507070642 | 26 | 68 | 1.6 | 11.3 | 0.00 | 0.00 | 0.00 | 81 | 1004.8 |
| 20260507070131 | 26 | 23 | 0.0 | 3.2 | 0.00 | 0.00 | 0.00 | 81 | 1004.9 |
| 20260507065111 | 26 | 45 | 0.0 | 3.2 | 0.00 | 0.00 | 0.00 | 82 | 1005.0 |
| 20260507064602 | 26 | 90 | 0.0 | 9.7 | 0.00 | 0.00 | 0.00 | 81 | 1005.1 |
| 20260507063541 | 26 | 45 | 1.6 | 9.7 | 0.00 | 0.00 | 0.00 | 82 | 1005.1 |
| 20260507062521 | 26 | 90 | 3.2 | 11.3 | 0.00 | 0.00 | 0.00 | 82 | 1005.2 |
| 20260507062023 | 26 | 68 | 0.0 | 17.7 | 0.00 | 0.00 | 0.00 | 82 | 1005.1 |
| 20260507061502 | 26 | 90 | 0.0 | 17.7 | 0.00 | 0.00 | 0.00 | 82 | 1005.2 |
| 20260507060950 | 26 | 90 | 1.6 | 17.7 | 0.00 | 0.00 | 0.00 | 82 | 1005.3 |
| 20260507060440 | 26 | 68 | 0.0 | 3.2 | 0.00 | 0.00 | 0.00 | 82 | 1005.5 |
| 20260507055930 | 26 | 68 | 0.0 | 3.2 | 0.00 | 0.00 | 0.00 | 82 | 1005.4 |
| 20260507055420 | 26 | 68 | 0.0 | 6.4 | 0.00 | 0.00 | 0.00 | 82 | 1005.6 |
| 20260507054909 | 26 | 68 | 0.0 | 6.4 | 0.00 | 0.00 | 0.00 | 82 | 1005.7 |
| 20260507053850 | 26 | 45 | 1.6 | 3.2 | 0.00 | 0.00 | 0.00 | 82 | 1005.8 |
| 20260507053340 | 26 | 45 | 0.0 | 17.7 | 0.00 | 0.00 | 0.00 | 82 | 1006.1 |
| 20260507052319 | 26 | 68 | 0.0 | 14.5 | 0.00 | 0.00 | 0.00 | 82 | 1006.0 |
| 20260507051809 | 26 | 90 | 3.2 | 14.5 | 0.00 | 0.00 | 0.00 | 82 | 1006.2 |
| 20260507051259 | 26 | 68 | 0.0 | 6.4 | 0.00 | 0.00 | 0.00 | 82 | 1006.0 |
| 20260507050149 | 26 | 45 | 0.0 | 0.0 | 0.00 | 0.00 | 0.00 | 81 | 1006.4 |
| 20260507045929 | 26 | 90 | 3.2 | 14.5 | 0.00 | 0.00 | 0.00 | 81 | 1006.4 |
| 20260507045419 | 26 | 90 | 0.0 | 12.9 | 0.00 | 0.00 | 0.00 | 81 | 1006.3 |
| 20260507044909 | 26 | 135 | 3.2 | 12.9 | 0.00 | 0.00 | 0.00 | 81 | 1006.4 |
| 20260507044358 | 26 | 68 | 0.0 | 6.4 | 0.00 | 0.00 | 0.00 | 81 | 1006.7 |
| 20260507043849 | 26 | 90 | 0.0 | 6.4 | 0.00 | 0.00 | 0.00 | 81 | 1006.6 |
| 20260507043339 | 26 | 68 | 0.0 | 11.3 | 0.00 | 0.00 | 0.00 | 81 | 1006.6 |
| 20260507042829 | 26 | 68 | 0.0 | 11.3 | 0.00 | 0.00 | 0.00 | 81 | 1006.6 |
| 20260507042318 | 26 | 68 | 1.6 | 9.7 | 0.00 | 0.00 | 0.00 | 81 | 1006.6 |
| 20260507041809 | 26 | 45 | 3.2 | 14.5 | 0.00 | 0.00 | 0.00 | 80 | 1006.7 |
| 20260507041258 | 26 | 23 | 4.8 | 14.5 | 0.00 | 0.00 | 0.00 | 80 | 1006.6 |
| 20260507040748 | 26 | 45 | 0.0 | 3.2 | 0.00 | 0.00 | 0.00 | 80 | 1006.5 |
| 20260507035728 | 26 | 23 | 3.2 | 14.5 | 0.00 | 0.00 | 0.00 | 80 | 1006.6 |
| 20260507035218 | 26 | 68 | 0.0 | 11.3 | 0.00 | 0.00 | 0.00 | 80 | 1006.8 |
| 20260507034708 | 26 | 23 | 1.6 | 11.3 | 0.00 | 0.00 | 0.00 | 79 | 1006.5 |
| 20260507034157 | 26 | 68 | 0.0 | 9.7 | 0.00 | 0.00 | 0.00 | 79 | 1006.6 |
| 20260507033647 | 26 | 68 | 0.0 | 17.7 | 0.00 | 0.00 | 0.00 | 79 | 1006.9 |
| 20260507033138 | 26 | 68 | 1.6 | 17.7 | 0.00 | 0.00 | 0.00 | 79 | 1007.0 |
| 20260507032118 | 26 | 68 | 0.0 | 12.9 | 0.00 | 0.00 | 0.00 | 80 | 1006.9 |
| 20260507031606 | 26 | 23 | 0.0 | 9.7 | 0.00 | 0.00 | 0.00 | 80 | 1007.2 |
| 20260507031057 | 26 | 45 | 0.0 | 17.7 | 0.00 | 0.00 | 0.00 | 80 | 1007.2 |
| 20260507030037 | 26 | 45 | 4.8 | 12.9 | 0.00 | 0.00 | 0.00 | 80 | 1006.9 |
| 20260507025526 | 26 | 45 | 0.0 | 12.9 | 0.00 | 0.00 | 0.00 | 79 | 1007.2 |
| 20260507025023 | 26 | 68 | 0.0 | 9.7 | 0.00 | 0.00 | 0.00 | 80 | 1007.2 |
| 20260507024514 | 26 | 45 | 0.0 | 9.7 | 0.00 | 0.00 | 0.00 | 80 | 1007.2 |
| 20260507023956 | 26 | 68 | 0.0 | 17.7 | 0.00 | 0.00 | 0.00 | 80 | 1007.2 |
| 20260507023446 | 26 | 45 | 1.6 | 17.7 | 0.00 | 0.00 | 0.00 | 80 | 1007.0 |
| 20260507022936 | 26 | 90 | 3.2 | 12.9 | 0.00 | 0.00 | 0.00 | 80 | 1007.1 |
| 20260507022425 | 26 | 68 | 0.0 | 12.9 | 0.00 | 0.00 | 0.00 | 80 | 1007.5 |
| 20260507021406 | 26 | 45 | 6.4 | 12.9 | 0.00 | 0.00 | 0.00 | 80 | 1007.2 |
| 20260507020855 | 26 | 45 | 3.2 | 12.9 | 0.00 | 0.00 | 0.00 | 80 | 1007.5 |
| 20260507020345 | 26 | 68 | 1.6 | 9.7 | 0.00 | 0.00 | 0.00 | 80 | 1007.7 |
| 20260507015836 | 26 | 68 | 1.6 | 6.4 | 0.00 | 0.00 | 0.00 | 80 | 1007.4 |
| 20260507015325 | 26 | 68 | 0.0 | 11.3 | 0.00 | 0.00 | 0.00 | 80 | 1007.4 |
| 20260507014816 | 26 | 68 | 3.2 | 14.5 | 0.00 | 0.00 | 0.00 | 80 | 1007.6 |
| 20260507013245 | 26 | 45 | 0.0 | 11.3 | 0.00 | 0.00 | 0.00 | 80 | 1007.5 |
| 20260507012734 | 26 | 68 | 0.0 | 11.3 | 0.00 | 0.00 | 0.00 | 80 | 1007.6 |
| 20260507012224 | 26 | 113 | 1.6 | 6.4 | 0.00 | 0.00 | 0.00 | 80 | 1007.5 |
| 20260507011715 | 26 | 68 | 0.0 | 14.5 | 0.00 | 0.00 | 0.00 | 80 | 1007.9 |
| 20260507010654 | 26 | 45 | 0.0 | 12.9 | 0.00 | 0.00 | 0.00 | 80 | 1007.9 |
| 20260507010143 | 26 | 45 | 0.0 | 11.3 | 0.00 | 0.00 | 0.00 | 80 | 1007.9 |
| 20260507005634 | 26 | 45 | 0.0 | 11.3 | 0.00 | 0.00 | 0.00 | 80 | 1007.5 |
| 20260507005124 | 26 | 45 | 3.2 | 6.4 | 0.00 | 0.00 | 0.00 | 80 | 1007.8 |
| 20260507004613 | 26 | 68 | 0.0 | 14.5 | 0.00 | 0.00 | 0.00 | 80 | 1007.7 |
| 20260507004104 | 26 | 0 | 3.2 | 14.5 | 0.00 | 0.00 | 0.00 | 80 | 1008.0 |
| 20260507003554 | 27 | 90 | 1.6 | 12.9 | 0.00 | 0.00 | 0.00 | 80 | 1007.8 |
| 20260507003043 | 27 | 68 | 3.2 | 12.9 | 0.00 | 0.00 | 0.00 | 80 | 1007.9 |
| 20260507002535 | 26 | 68 | 0.0 | 9.7 | 0.00 | 0.00 | 0.00 | 81 | 1007.8 |
| 20260507002025 | 27 | 45 | 0.0 | 11.3 | 0.00 | 0.00 | 0.00 | 80 | 1007.7 |
| 20260507001518 | 27 | 23 | 1.6 | 11.3 | 0.00 | 0.00 | 0.00 | 79 | 1007.9 |
| 20260506235942 | 27 | 68 | 6.4 | 11.3 | 0.00 | 0.00 | 0.00 | 80 | 1007.8 |
| 20260506235432 | 26 | 90 | 3.2 | 11.3 | 0.00 | 0.00 | 0.00 | 81 | 1007.9 |
| 20260506234922 | 26 | 90 | 0.0 | 12.9 | 0.00 | 0.00 | 0.00 | 82 | 1007.8 |
| 20260506234413 | 26 | 90 | 0.0 | 12.9 | 0.00 | 0.00 | 0.00 | 82 | 1007.9 |
| 20260506233902 | 26 | 45 | 0.0 | 9.7 | 0.00 | 0.00 | 0.00 | 83 | 1007.8 |
| 20260506232841 | 26 | 90 | 1.6 | 6.4 | 0.00 | 0.00 | 0.00 | 83 | 1007.9 |
| 20260506232332 | 26 | 45 | 1.6 | 3.2 | 0.00 | 0.00 | 0.00 | 83 | 1007.9 |
| 20260506231821 | 26 | 68 | 0.0 | 11.3 | 0.00 | 0.00 | 0.00 | 83 | 1008.2 |
| 20260506231312 | 26 | 45 | 4.8 | 11.3 | 0.00 | 0.00 | 0.00 | 83 | 1008.0 |
| 20260506230251 | 26 | 68 | 0.0 | 3.2 | 0.00 | 0.00 | 0.00 | 82 | 1008.6 |
| 20260506225741 | 26 | 45 | 0.0 | 3.2 | 0.00 | 0.00 | 0.00 | 82 | 1008.3 |
| 20260506224721 | 27 | 90 | 0.0 | 12.9 | 0.00 | 0.00 | 0.00 | 81 | 1008.4 |
| 20260506223700 | 27 | 68 | 0.0 | 11.3 | 0.00 | 0.00 | 0.00 | 80 | 1008.5 |
| 20260506223151 | 27 | 45 | 0.0 | 11.3 | 0.00 | 0.00 | 0.00 | 80 | 1008.3 |
| 20260506222641 | 27 | 68 | 0.0 | 3.2 | 0.00 | 0.00 | 0.00 | 80 | 1008.5 |
| 20260506221620 | 27 | 68 | 0.0 | 3.2 | 0.00 | 0.00 | 0.00 | 81 | 1008.3 |
| 20260506221110 | 27 | 68 | 0.0 | 3.2 | 0.00 | 0.00 | 0.00 | 81 | 1008.5 |
| 20260506220601 | 27 | 68 | 0.0 | 3.2 | 0.00 | 0.00 | 0.00 | 81 | 1008.4 |
| 20260506220050 | 27 | 68 | 0.0 | 3.2 | 0.00 | 0.00 | 0.00 | 81 | 1008.3 |
| 20260506215540 | 27 | 90 | 0.0 | 3.2 | 0.00 | 0.00 | 0.00 | 80 | 1008.4 |
| 20260506215029 | 27 | 68 | 0.0 | 3.2 | 0.00 | 0.00 | 0.00 | 80 | 1008.5 |
| 20260506214519 | 27 | 68 | 0.0 | 3.2 | 0.00 | 0.00 | 0.00 | 79 | 1008.5 |
| 20260506214024 | 27 | 90 | 0.0 | 3.2 | 0.00 | 0.00 | 0.00 | 79 | 1008.5 |
| 20260506213459 | 27 | 68 | 0.0 | 3.2 | 0.00 | 0.00 | 0.00 | 78 | 1008.6 |
| 20260506212949 | 27 | 90 | 0.0 | 6.4 | 0.00 | 0.00 | 0.00 | 78 | 1008.4 |
| 20260506210909 | 28 | 68 | 0.0 | 3.2 | 0.00 | 0.00 | 0.00 | 77 | 1008.6 |
| 20260506210358 | 28 | 45 | 0.0 | 3.2 | 0.00 | 0.00 | 0.00 | 76 | 1008.8 |
| 20260506205849 | 28 | 45 | 0.0 | 3.2 | 0.00 | 0.00 | 0.00 | 76 | 1008.7 |
| 20260506205338 | 28 | 68 | 0.0 | 14.5 | 0.00 | 0.00 | 0.00 | 76 | 1008.6 |
| 20260506204828 | 28 | 68 | 0.0 | 14.5 | 0.00 | 0.00 | 0.00 | 75 | 1008.8 |
| 20260506202748 | 28 | 45 | 0.0 | 11.3 | 0.00 | 0.00 | 0.00 | 74 | 1008.9 |
| 20260506202238 | 28 | 23 | 6.4 | 11.3 | 0.00 | 0.00 | 0.00 | 73 | 1008.8 |
| 20260506201728 | 29 | 68 | 0.0 | 14.5 | 0.00 | 0.00 | 0.00 | 73 | 1008.7 |
| 20260506200707 | 29 | 68 | 1.6 | 14.5 | 0.00 | 0.00 | 0.00 | 73 | 1008.9 |
| 20260506200157 | 29 | 90 | 0.0 | 11.3 | 0.00 | 0.00 | 0.00 | 73 | 1008.9 |
| 20260506195648 | 29 | 90 | 0.0 | 12.9 | 0.00 | 0.00 | 0.00 | 73 | 1009.0 |
| 20260506194628 | 29 | 45 | 0.0 | 17.7 | 0.00 | 0.00 | 0.00 | 72 | 1009.0 |
| 20260506194117 | 29 | 90 | 4.8 | 17.7 | 0.00 | 0.00 | 0.00 | 73 | 1008.8 |
| 20260506193608 | 29 | 113 | 6.4 | 17.7 | 0.00 | 0.00 | 0.00 | 72 | 1008.9 |
| 20260506193057 | 30 | 68 | 0.0 | 17.7 | 0.00 | 0.00 | 0.00 | 72 | 1008.8 |
| 20260506192546 | 30 | 45 | 3.2 | 17.7 | 0.00 | 0.00 | 0.00 | 71 | 1009.1 |
| 20260506192037 | 30 | 68 | 0.0 | 17.7 | 0.00 | 0.00 | 0.00 | 71 | 1009.1 |
| 20260506191025 | 30 | 68 | 6.4 | 20.9 | 0.00 | 0.00 | 0.00 | 70 | 1008.9 |
| 20260506185956 | 30 | 68 | 11.3 | 17.7 | 0.00 | 0.00 | 0.00 | 69 | 1009.0 |
| 20260506185445 | 30 | 45 | 8.0 | 17.7 | 0.00 | 0.00 | 0.00 | 69 | 1009.0 |
| 20260506184935 | 30 | 45 | 3.2 | 17.7 | 0.00 | 0.00 | 0.00 | 68 | 1008.8 |
| 20260506184426 | 30 | 68 | 0.0 | 17.7 | 0.00 | 0.00 | 0.00 | 68 | 1009.1 |
| 20260506183915 | 30 | 90 | 3.2 | 17.7 | 0.00 | 0.00 | 0.00 | 68 | 1009.2 |
| 20260506183406 | 30 | 68 | 3.2 | 17.7 | 0.00 | 0.00 | 0.00 | 68 | 1009.2 |
| 20260506182855 | 30 | 23 | 4.8 | 17.7 | 0.00 | 0.00 | 0.00 | 68 | 1009.5 |
| 20260506182346 | 30 | 113 | 6.4 | 17.7 | 0.00 | 0.00 | 0.00 | 68 | 1009.6 |
| 20260506181835 | 30 | 90 | 1.6 | 20.9 | 0.00 | 0.00 | 0.00 | 68 | 1009.5 |
| 20260506181325 | 31 | 68 | 1.6 | 20.9 | 0.00 | 0.00 | 0.00 | 66 | 1009.5 |
| 20260506180815 | 31 | 90 | 1.6 | 17.7 | 0.00 | 0.00 | 0.00 | 66 | 1009.5 |
| 20260506180305 | 31 | 68 | 3.2 | 20.9 | 0.00 | 0.00 | 0.00 | 67 | 1009.7 |
| 20260506175755 | 31 | 90 | 8.0 | 20.9 | 0.00 | 0.00 | 0.00 | 67 | 1009.8 |
| 20260506175244 | 30 | 68 | 8.0 | 20.9 | 0.00 | 0.00 | 0.00 | 67 | 1010.0 |
| 20260506174734 | 30 | 68 | 6.4 | 20.9 | 0.00 | 0.00 | 0.00 | 68 | 1010.1 |
| 20260506174224 | 31 | 23 | 1.6 | 20.9 | 0.00 | 0.00 | 0.00 | 67 | 1010.4 |
| 20260506173714 | 31 | 0 | 3.2 | 17.7 | 0.00 | 0.00 | 0.00 | 65 | 1010.4 |
| 20260506173204 | 31 | 23 | 6.4 | 17.7 | 0.00 | 0.00 | 0.00 | 66 | 1010.4 |
| 20260506172654 | 30 | 45 | 3.2 | 20.9 | 0.00 | 0.00 | 0.00 | 67 | 1010.1 |
| 20260506172144 | 31 | 45 | 8.0 | 20.9 | 0.00 | 0.00 | 0.00 | 67 | 1010.4 |
| 20260506170103 | 31 | 23 | 9.7 | 27.4 | 0.00 | 0.00 | 0.00 | 66 | 1010.5 |
| 20260506165553 | 31 | 45 | 11.3 | 25.7 | 0.00 | 0.00 | 0.00 | 65 | 1010.8 |
| 20260506165043 | 31 | 23 | 12.9 | 25.7 | 0.00 | 0.00 | 0.00 | 66 | 1011.1 |
| 20260506164533 | 30 | 0 | 6.4 | 25.7 | 0.00 | 0.00 | 0.00 | 67 | 1010.9 |
| 20260506163513 | 30 | 23 | 12.9 | 24.1 | 0.00 | 0.00 | 0.00 | 67 | 1011.5 |
| 20260506162452 | 30 | 113 | 14.5 | 25.7 | 0.00 | 0.00 | 0.00 | 68 | 1011.5 |
| 20260506161942 | 31 | 23 | 6.4 | 24.1 | 0.00 | 0.00 | 0.00 | 67 | 1011.4 |
| 20260506161433 | 30 | 45 | 8.0 | 24.1 | 0.00 | 0.00 | 0.00 | 67 | 1011.3 |
| 20260506160922 | 30 | 23 | 4.8 | 20.9 | 0.00 | 0.00 | 0.00 | 69 | 1011.7 |
| 20260506160411 | 30 | 45 | 1.6 | 17.7 | 0.00 | 0.00 | 0.00 | 70 | 1011.6 |